TimePDT,TemperatureF,Dew PointF,Humidity,Sea Level PressureIn,VisibilityMPH,Wind Direction,Wind SpeedMPH,Gust SpeedMPH,PrecipitationIn,Events,Conditions,WindDirDegrees,DateUTC
12:56 AM,43.0,18.0,37,29.83,10.0,NE,4.6,-,N/A,,Clear,50,2012-10-20 07:56:00
1:56 AM,42.1,21.9,45,29.83,10.0,Calm,Calm,-,N/A,,Overcast,0,2012-10-20 08:56:00
2:56 AM,46.0,19.0,34,29.81,10.0,Calm,Calm,-,N/A,,Overcast,0,2012-10-20 09:56:00
3:56 AM,51.1,18.0,27,29.80,10.0,West,4.6,-,N/A,,Overcast,260,2012-10-20 10:56:00
4:56 AM,46.9,19.0,33,29.79,10.0,Calm,Calm,-,N/A,,Partly Cloudy,0,2012-10-20 11:56:00
5:56 AM,43.0,19.0,38,29.81,10.0,Calm,Calm,-,N/A,,Scattered Clouds,0,2012-10-20 12:56:00
6:56 AM,45.0,21.0,39,29.83,10.0,Calm,Calm,-,N/A,,Scattered Clouds,0,2012-10-20 13:56:00
7:56 AM,45.0,19.9,37,29.82,10.0,Calm,Calm,-,N/A,,Clear,0,2012-10-20 14:56:00
9:56 AM,66.0,25.0,21,29.76,10.0,WSW,12.7,-,N/A,,Clear,240,2012-10-20 16:56:00
10:56 AM,66.0,25.0,21,29.76,10.0,West,13.8,-,N/A,,Clear,270,2012-10-20 17:56:00
11:56 AM,68.0,30.0,24,29.74,10.0,West,15.0,25.3,N/A,,Clear,280,2012-10-20 18:56:00
12:56 PM,70.0,30.0,23,29.71,10.0,WSW,20.7,27.6,N/A,,Clear,250,2012-10-20 19:56:00
1:56 PM,70.0,28.9,22,29.68,10.0,West,23.0,27.6,N/A,,Clear,260,2012-10-20 20:56:00
2:56 PM,70.0,28.0,21,29.66,10.0,West,16.1,26.5,N/A,,Clear,270,2012-10-20 21:56:00
3:56 PM,70.0,28.0,21,29.64,10.0,WSW,18.4,26.5,N/A,,Clear,240,2012-10-20 22:56:00
4:56 PM,68.0,23.0,18,29.65,10.0,West,15.0,-,N/A,,Mostly Cloudy,270,2012-10-20 23:56:00
5:56 PM,63.0,24.1,23,29.67,10.0,West,12.7,-,N/A,,Clear,280,2012-10-21 00:56:00
6:56 PM,55.0,24.1,30,29.70,10.0,SW,9.2,-,N/A,,Clear,220,2012-10-21 01:56:00
7:56 PM,55.9,24.1,29,29.69,10.0,South,9.2,-,N/A,,Clear,170,2012-10-21 02:56:00
8:56 PM,53.1,23.0,31,29.68,10.0,South,6.9,-,N/A,,Clear,190,2012-10-21 03:56:00
9:56 PM,46.0,21.0,37,29.68,10.0,West,5.8,-,N/A,,Clear,260,2012-10-21 04:56:00
10:56 PM,42.1,19.9,41,29.70,10.0,NW,3.5,-,N/A,,Clear,320,2012-10-21 05:56:00
11:56 PM,43.0,21.9,43,29.70,10.0,North,3.5,-,N/A,,Clear,10,2012-10-21 06:56:00